White Plains, CT

4:07 PM EDT on July 24, 2017 (GMT -0400)
Westchester County

Weather History for KHPN - May, 2014

Change the Weather History Date:

Friday, May 23, 2014

  Actual Average Record
Temperature  
Mean Temperature 60 °F -  
Max Temperature 66 °F 66 °F 87 °F (1992)
Min Temperature 55 °F 48 °F 41 °F (2002)
Degree Days  
Heating Degree Days 4    
Growing Degree Days 10 (Base 50)    
Moisture  
Dew Point 56 °F    
Average Humidity 90    
Maximum Humidity 100    
Minimum Humidity 75    
Precipitation  
Precipitation 0.13 in - - ()
Sea Level Pressure  
Sea Level Pressure 29.88 in    
Wind  
Wind Speed 4 mph (East)    
Max Wind Speed 8 mph    
Max Gust Speed -    
Visibility 5 miles    
Events Fog , Rain    
Averages and records for this station are not official NWS values.
T = Trace of Precipitation, MM = Missing Value Source: NWS Daily Summary

Daily Weather History Graph

Daily Weather History Graph

Search for Another Location

Airport or City:

Trip Planner

Search our weather history database for the weather conditions in past years. The results will help you decide how hot, cold, wet, or windy it might be!

Date:

Astronomy

May. 23, 2014 Rise Set
Actual Time 5:30 AM EDT 8:13 PM EDT
Civil Twilight 4:58 AM EDT 8:45 PM EDT
Nautical Twilight 4:17 AM EDT 9:26 PM EDT
Astronomical Twilight 3:31 AM EDT 10:12 PM EDT
Moon 2:25 AM EDT (5/23) 3:00 PM EDT (5/23)
Length of Visible Light 15h 47m
Length of Day
14h 43m
Waning Crescent, 27% of the Moon is Illuminated
May 23
Waning Crescent
May 28
New
Jun 5
First Quarter
Jun 13
Full
Jun 19
Last Quarter

Hourly Weather History & Observations

Time (EDT) Temp. Dew Point Humidity Pressure Visibility Wind Dir Wind Speed Gust Speed Precip Events Conditions
12:56 AM 55.9 °F 55.0 °F 97% 29.86 in 0.8 mi ENE 5.8 mph - N/A   Mist
1:56 AM 55.0 °F 54.0 °F 96% 29.85 in 1.0 mi East 5.8 mph - N/A   Mist
2:56 AM 55.0 °F 54.0 °F 96% 29.86 in 1.0 mi Calm Calm - N/A   Mist
3:56 AM 55.0 °F 54.0 °F 96% 29.86 in 1.5 mi East 3.5 mph - 0.01 in   Drizzle
4:56 AM 55.0 °F 54.0 °F 96% 29.85 in 1.5 mi Calm Calm - 0.00 in   Overcast
5:28 AM 55.4 °F 53.6 °F 94% 29.85 in 0.8 mi ENE 3.5 mph - N/A   Mist
5:56 AM 55.9 °F 54.0 °F 93% 29.85 in 0.2 mi ENE 3.5 mph - N/A Fog Fog
6:56 AM 55.9 °F 55.0 °F 97% 29.86 in 1.5 mi Calm Calm - N/A   Mist
7:22 AM 57.2 °F 55.4 °F 94% 29.86 in 2.0 mi NNW 4.6 mph - N/A   Mostly Cloudy
7:56 AM 57.9 °F 55.9 °F 93% 29.87 in 2.5 mi North 3.5 mph - N/A   Mostly Cloudy
8:56 AM 60.1 °F 55.9 °F 86% 29.89 in 2.5 mi ESE 3.5 mph - N/A   Mostly Cloudy
9:56 AM 61.0 °F 57.0 °F 87% 29.89 in 4.0 mi SE 4.6 mph - 0.01 in   Mostly Cloudy
10:56 AM 62.1 °F 57.0 °F 84% 29.89 in 4.0 mi Calm Calm - N/A   Mostly Cloudy
11:03 AM 62.6 °F 57.2 °F 82% 29.90 in 6.0 mi Calm Calm - N/A   Overcast
11:56 AM 63.0 °F 57.9 °F 84% 29.88 in 6.0 mi South 6.9 mph - N/A   Mostly Cloudy
12:56 PM 64.9 °F 57.9 °F 78% 29.88 in 7.0 mi SSE 4.6 mph - N/A   Mostly Cloudy
1:56 PM 66.0 °F 57.9 °F 75% 29.88 in 8.0 mi South 5.8 mph - N/A   Mostly Cloudy
2:56 PM 62.1 °F 55.9 °F 80% 29.87 in 10.0 mi SSE 8.1 mph - N/A   Mostly Cloudy
3:56 PM 62.6 °F 55.4 °F 77% 29.86 in 10.0 mi SSE 6.9 mph - N/A   Mostly Cloudy
4:56 PM 61.0 °F 57.0 °F 87% 29.87 in 9.0 mi North 4.6 mph - 0.00 in Rain Rain
5:56 PM 60.1 °F 55.9 °F 86% 29.87 in 8.0 mi North 5.8 mph - 0.01 in Rain Light Rain
6:56 PM 60.1 °F 57.9 °F 93% 29.87 in 4.0 mi ESE 4.6 mph - 0.06 in Rain Light Rain
7:01 PM 60.8 °F 57.2 °F 88% 29.87 in 4.0 mi ESE 6.9 mph - 0.01 in Rain Light Rain
7:56 PM 59.0 °F 55.0 °F 87% 29.89 in 10.0 mi NNE 5.8 mph - 0.02 in   Overcast
8:56 PM 57.9 °F 55.9 °F 93% 29.91 in 7.0 mi Calm Calm - 0.01 in Rain Light Rain
9:15 PM 57.2 °F 55.4 °F 94% 29.92 in 7.0 mi Calm Calm - 0.00 in Rain Light Rain
9:31 PM 57.2 °F 55.4 °F 94% 29.93 in 6.0 mi SSE 3.5 mph - 0.01 in Rain Light Rain
9:56 PM 55.9 °F 55.0 °F 97% 29.94 in 8.0 mi South 3.5 mph - 0.01 in   Drizzle
10:56 PM 55.9 °F 54.0 °F 93% 29.93 in 9.0 mi Calm Calm - 0.00 in   Drizzle
11:03 PM 55.4 °F 55.4 °F 100% 29.93 in 9.0 mi Calm Calm - N/A   Overcast
11:56 PM 57.0 °F 54.0 °F 89% 29.93 in 6.0 mi NNE 5.8 mph - 0.00 in Rain Light Rain